Location: Spruce Knob
(38.6995°N, 79.5330°W)
Time: 03:43:31
(UTC-05:00)

Altair - Visible Passes

Search period start: 28 January 2022 00:00
Search period end: 07 February 2022 00:00
Orbit: 1501 x 1683 km, 47.2° (Epoch: 27 January)

Date Brightness Start Highest point End Pass type
(mag) Time Alt. Az. Time Alt. Az. Time Alt. Az.
28 Jan 9.7 01:45:36 13° ENE 01:45:36 13° ENE 01:46:18 10° ENE visible
28 Jan 8.1 03:43:36 50° NNE 03:43:36 50° NNE 03:52:05 10° ENE visible
28 Jan 7.8 05:41:37 25° NW 05:48:23 70° NNE 05:58:28 10° ESE visible
29 Jan 8.4 03:19:46 42° NE 03:19:46 42° NE 03:26:45 10° ENE visible
29 Jan 7.8 05:17:47 33° NW 05:23:06 68° NNE 05:33:10 10° ESE visible
30 Jan 8.7 02:55:57 34° NE 02:55:57 34° NE 03:01:26 10° ENE visible
30 Jan 7.8 04:53:57 42° NW 04:57:48 65° NNE 05:07:52 10° ESE visible
30 Jan 7.9 06:52:53 10° WNW 07:02:50 61° SW 07:12:36 10° SE visible
31 Jan 9.1 02:32:09 26° ENE 02:32:09 26° ENE 02:36:06 10° ENE visible
31 Jan 7.8 04:30:10 52° NNW 04:32:29 63° NNE 04:42:33 10° E visible
31 Jan 7.8 06:28:12 12° WNW 06:37:39 66° SW 06:47:32 10° SE visible
01 Feb 9.4 02:08:23 19° ENE 02:08:23 19° ENE 02:10:47 10° ENE visible
01 Feb 7.8 04:06:24 59° N 04:07:11 61° NNE 04:17:14 10° E visible
01 Feb 7.7 06:04:25 18° WNW 06:12:28 70° SW 06:22:26 10° SE visible
02 Feb 9.7 01:44:40 13° ENE 01:44:40 13° ENE 01:45:28 10° ENE visible
02 Feb 7.9 03:42:41 58° NNE 03:42:41 58° NNE 03:51:54 10° E visible
02 Feb 7.6 05:40:42 26° WNW 05:47:15 75° SW 05:57:18 10° SE visible
03 Feb 8.2 03:19:00 48° ENE 03:19:00 48° ENE 03:26:33 10° E visible
03 Feb 7.6 05:17:02 36° WNW 05:22:03 79° SW 05:32:09 10° SE visible
03 Feb 9.2 20:29:01 10° S 20:30:07 13° SSE 20:30:07 13° SSE visible
04 Feb 8.6 02:55:23 37° ENE 02:55:23 37° ENE 03:01:13 10° E visible
04 Feb 7.5 04:53:25 49° WNW 04:56:51 84° SSW 05:06:59 10° SE visible
04 Feb 8.5 06:52:34 10° WNW 07:00:45 29° SW 07:08:54 10° S visible
04 Feb 9.0 20:04:28 10° SSE 20:06:59 16° SSE 20:06:59 16° SSE visible
04 Feb 9.6 22:04:50 10° SW 22:05:04 11° SW 22:05:04 11° SW visible
05 Feb 9.0 02:31:49 27° ENE 02:31:49 27° ENE 02:35:51 10° E visible
05 Feb 7.5 04:29:51 67° WNW 04:31:36 88° SSW 04:41:47 10° SE visible
05 Feb 8.4 06:27:53 12° WNW 06:35:39 32° SW 06:44:08 10° S visible
05 Feb 8.8 19:40:01 10° SSE 19:43:54 17° SE 19:43:54 17° SE visible
05 Feb 9.1 21:39:46 10° SW 21:41:58 19° SW 21:41:58 19° SW visible
06 Feb 9.4 02:08:19 18° E 02:08:19 18° E 02:10:30 10° E visible
06 Feb 7.5 04:06:21 88° NNE 04:06:22 88° NNE 04:16:34 10° ESE visible
06 Feb 8.3 06:04:24 19° W 06:10:33 35° SW 06:19:18 10° SSE visible
06 Feb 8.8 19:15:42 10° SSE 19:20:49 16° ESE 19:20:49 16° ESE visible
06 Feb 8.6 21:14:44 10° SW 21:18:54 30° SSW 21:18:54 30° SSW visible
